Wind_Speed
2 4 6 7 9 10 10 10 10 10 10 11 12 12 13 13 13 13 13 13 13 11 11 11 12 13 14 16 16 17 17 17 17 17 17 18 18 18 18 18 17 16 16 15 17 19 21 22 22 22 23 26 27 25 22 21 22 24 25 26 27 28 29 30 31 31 30 29 28
3 2 2 3 5 6 8 9 10 10 11 11 11 12 12 12 12 12 12 13 13 12 11 11 11 11 12 14 15 15 15 15 15 15 16 18 18 18 18 19 19 19 18 18 19 21 22 22 21 22 23 24 26 25 23 22 22 23 23 24 24 26 28 30 31 31 30 28 27
6 5 4 2 2 3 4 6 7 9 10 11 11 11 11 11 12 11 11 11 12 13 13 12 12 12 12 13 13 13 14 14 13 13 13 15 17 18 19 21 22 23 22 22 23 24 24 23 22 22 22 23 23 24 23 23 22 22 22 22 24 26 28 29 29 29 27 27 26
7 7 6 6 5 4 3 3 4 5 7 8 9 10 10 11 11 11 11 11 12 13 13 13 12 12 11 10 10 11 12 11 11 10 10 11 14 17 19 22 23 24 25 24 25 25 25 24 23 23 22 22 21 22 22 23 23 23 25 26 25 25 26 27 27 27 26 25 24
8 8 8 7 7 6 6 5 5 5 5 6 7 8 8 9 9 10 10 11 12 12 12 11 11 10 9 7 6 7 8 8 9 10 10 10 12 14 17 20 21 22 22 23 23 24 24 23 23 22 21 21 21 20 21 23 25 27 28 28 25 24 24 24 25 24 23 23 22
9 9 8 8 8 7 7 6 6 6 6 6 6 6 7 7 8 8 9 10 10 10 10 9 9 8 6 5 5 6 7 8 9 10 11 12 13 15 16 17 18 18 18 19 19 20 20 21 21 20 20 20 19 19 20 22 24 26 26 24 23 23 22 22 22 21 21 20 20
8 8 9 8 8 8 8 7 7 6 6 5 5 6 6 7 7 8 9 9 9 9 8 8 8 7 6 5 6 7 9 10 12 13 14 15 17 19 19 18 17 16 16 16 16 17 18 18 18 18 18 17 17 18 19 20 21 21 21 20 20 21 21 20 20 20 19 19 19
8 8 9 8 8 8 8 8 8 7 7 6 6 6 7 7 7 8 8 8 9 9 9 9 9 8 7 7 7 8 10 12 13 15 16 17 20 21 21 19 18 17 16 16 16 16 16 16 16 16 16 16 17 17 17 17 17 17 17 18 18 18 19 19 19 19 19 18 19
9 9 9 9 9 9 9 8 8 8 7 7 7 8 8 8 8 7 7 7 7 8 8 8 8 9 9 8 9 10 11 13 14 15 16 17 18 18 18 17 17 17 17 16 15 14 14 13 13 14 15 16 17 16 15 14 14 14 15 16 15 16 16 17 17 17 18 17 17
9 9 9 9 9 9 9 9 8 7 7 7 7 8 8 8 8 7 7 6 6 6 6 6 7 9 9 9 9 10 11 12 12 12 13 13 13 13 13 13 14 14 14 14 13 12 11 12 12 13 14 15 15 14 13 12 12 12 13 13 13 13 14 14 15 15 15 15 15
9 9 9 9 10 10 9 8 7 7 6 7 7 8 8 7 7 7 7 6 6 6 6 6 7 8 9 9 9 8 8 9 10 11 10 10 9 9 10 10 11 11 11 11 11 11 11 11 12 12 13 13 12 11 10 10 10 10 11 11 12 12 11 12 12 13 13 13 13
9 9 9 10 10 9 9 8 7 6 6 7 7 7 7 7 7 7 7 7 7 8 9 9 10 10 10 9 8 8 8 9 10 10 10 9 9 9 10 10 10 10 10 10 10 10 11 11 11 11 11 10 9 8 8 9 9 9 10 10 10 9 9 9 10 11 12 13 13
9 9 9 9 9 9 8 7 7 6 6 6 7 7 7 8 8 8 8 8 8 9 10 11 11 10 9 9 9 9 10 10 10 9 8 8 8 9 10 10 9 9 9 10 10 10 10 10 10 10 9 8 7 7 7 7 8 9 9 9 8 8 8 9 10 11 12 13 14
9 9 9 9 9 8 8 7 6 6 6 6 7 7 7 8 8 8 8 8 8 8 9 9 9 9 8 9 9 10 10 11 11 9 8 8 9 9 9 8 9 9 9 9 9 8 8 9 9 8 7 6 6 6 6 7 8 8 8 8 8 8 9 10 11 12 13 14 15
10 10 10 10 9 9 8 7 6 6 6 7 7 7 7 7 7 7 7 7 7 7 7 6 6 5 6 6 6 7 8 9 9 8 8 9 10 10 9 9 9 9 9 9 8 7 7 6 6 6 6 6 6 6 6 7 7 7 8 8 9 10 11 11 12 13 14 16 16
10 10 10 10 10 9 8 8 7 7 7 7 7 7 7 7 8 8 8 8 8 7 6 4 4 3 3 2 1 2 2 4 4 5 6 8 9 10 10 10 10 9 9 8 8 7 6 5 5 5 5 5 6 6 7 7 7 7 8 9 10 11 12 13 13 14 16 16 17
11 11 11 10 10 10 9 9 8 8 8 8 8 8 7 8 8 8 8 8 7 7 6 5 4 3 2 1 1 1 2 2 3 3 4 5 6 8 9 10 10 8 7 8 8 7 6 5 5 5 5 6 6 7 7 7 7 8 9 10 11 12 12 13 14 15 16 16 16
11 11 11 11 11 11 10 10 9 9 9 8 8 8 8 8 8 7 7 6 6 5 4 4 4 3 2 1 1 1 2 2 3 3 3 3 4 6 7 7 7 7 7 8 8 7 6 5 6 6 6 6 6 7 7 7 7 8 10 11 11 12 12 13 14 15 15 16 16
12 12 12 12 12 11 11 10 10 10 9 9 8 7 7 7 7 7 6 5 4 4 3 3 2 2 1 1 1 2 3 3 3 4 4 4 4 5 5 5 5 6 7 7 6 5 4 5 6 6 6 6 6 6 7 7 7 8 9 10 11 11 12 12 13 14 15 15 16
13 12 12 12 12 12 11 11 11 10 9 9 8 7 6 6 6 6 5 5 4 3 3 3 2 2 1 1 2 3 4 4 5 5 5 5 4 4 4 4 4 5 5 5 4 2 2 4 5 6 6 6 6 7 7 7 8 9 9 10 10 10 11 12 13 14 15 15 15
13 13 12 12 12 12 11 11 10 9 9 8 8 7 6 5 5 5 5 4 4 3 3 4 4 4 4 4 4 4 4 5 5 5 5 5 5 5 4 4 4 4 4 4 3 3 3 4 5 6 6 7 7 8 8 9 9 10 10 10 10 10 11 11 12 12 12 12 12
12 12 12 12 12 11 11 10 9 8 8 8 8 7 7 6 5 5 4 4 4 4 5 5 5 5 5 5 5 5 5 5 5 5 5 5 5 5 5 5 4 4 4 4 4 4 5 6 6 6 7 7 8 9 9 10 11 11 12 12 11 11 12 12 12 12 11 11 10
12 11 11 11 11 10 9 8 7 7 7 8 7 7 7 6 6 5 5 5 5 6 6 7 7 7 6 6 6 6 6 6 6 6 6 6 6 6 6 6 6 6 6 5 5 5 6 7 7 7 8 8 9 10 11 12 12 13 13 13 13 13 13 13 13 13 12 11 11
11 11 10 10 10 9 8 8 8 8 8 8 8 7 7 7 7 7 7 7 7 8 8 8 8 8 8 8 7 7 7 8 8 8 8 8 8 8 8 7 7 7 7 6 6 6 7 8 8 9 9 10 11 11 11 12 13 13 13 14 14 14 14 13 13 13 12 12 12
11 10 10 10 9 9 9 9 9 9 9 9 8 8 8 8 8 9 9 9 10 10 10 10 10 10 10 10 10 10 9 10 10 10 10 10 10 9 9 9 9 9 8 8 7 7 7 9 10 11 11 11 12 12 12 12 12 12 13 13 14 14 14 13 13 12 11 11 11
11 11 11 10 10 10 10 10 10 10 10 9 9 9 10 10 10 10 11 12 12 12 12 13 13 12 12 12 12 12 12 11 11 11 11 11 10 10 10 10 10 11 10 10 9 9 9 10 11 11 12 12 12 12 12 12 11 12 12 12 13 13 13 12 11 11 10 10 9
11 11 11 11 11 11 11 11 11 11 11 11 11 11 11 11 12 12 13 14 14 14 14 14 14 13 13 13 13 13 13 13 12 12 11 11 12 12 12 12 13 13 12 12 11 10 10 10 10 11 12 12 12 12 12 12 12 12 12 12 12 12 12 11 10 10 9 8 8
12 12 12 12 12 12 12 12 12 12 12 12 12 12 12 12 13 13 13 14 14 14 14 14 14 14 14 14 14 14 14 13 13 13 12 13 13 14 14 14 14 14 12 11 10 10 10 11 10 11 12 13 13 13 13 13 13 12 12 12 11 11 10 10 9 9 8 8 7
12 12 12 12 12 12 12 12 12 12 12 12 12 12 13 13 13 13 13 13 13 14 14 14 14 15 15 15 15 15 14 14 14 13 13 14 14 14 15 15 15 14 12 11 11 11 11 11 10 10 11 13 14 14 13 13 13 12 12 11 10 10 9 9 9 8 8 8 7
12 12 12 12 12 12 12 12 11 11 12 12 13 13 13 14 14 13 13 14 14 15 15 15 16 16 16 15 15 15 15 14 14 14 14 15 15 16 16 16 15 14 13 12 12 11 11 11 10 10 11 12 12 13 13 12 12 12 11 11 10 10 10 9 9 9 9 8 8
12 12 12 12 12 12 11 11 11 12 12 13 13 14 14 14 14 14 14 15 16 16 16 16 17 16 16 15 16 16 16 16 16 17 17 18 18 19 19 19 18 16 15 14 13 12 11 10 9 9 10 10 11 11 12 12 12 12 12 11 11 11 10 10 10 9 8 8 7
11 11 11 12 12 12 11 11 12 12 13 14 14 14 15 15 14 14 15 16 16 17 17 17 17 17 16 17 18 19 19 20 20 21 21 21 22 22 21 20 18 16 14 13 13 12 11 10 9 9 10 10 11 11 12 12 12 13 13 12 12 11 10 10 9 8 8 7 7
11 11 11 12 12 11 11 12 12 13 13 14 14 15 15 15 15 15 15 15 16 16 16 17 17 17 18 19 20 21 21 21 21 21 21 21 21 21 20 19 18 16 14 13 13 13 12 11 10 11 11 11 12 12 13 13 13 13 13 12 11 10 9 9 8 8 8 7 7
10 11 11 11 11 11 11 11 12 13 14 14 14 14 14 14 15 15 15 15 16 17 17 18 19 19 20 20 21 21 21 20 20 20 20 20 20 20 20 19 17 16 15 15 14 13 12 12 12 12 12 13 13 13 13 13 12 12 12 11 10 10 9 9 9 8 8 6 5
10 10 11 11 11 11 11 12 12 13 14 14 14 14 14 14 15 15 15 16 17 18 19 20 20 20 20 20 20 20 20 20 19 19 18 18 19 19 19 18 17 16 14 14 14 13 12 12 12 12 12 12 12 12 12 12 12 12 11 11 10 10 9 9 8 7 6 4 3
10 10 10 10 10 11 11 11 12 13 13 13 13 13 13 14 14 15 15 17 18 19 20 20 21 20 20 20 20 19 19 19 18 17 17 16 17 18 18 17 16 15 14 13 13 12 12 11 11 11 11 11 12 12 12 13 13 12 11 11 10 9 8 8 7 5 4 2 2
9 10 10 10 11 11 11 11 12 13 13 13 13 13 13 14 14 14 15 17 18 19 20 20 20 21 21 21 20 19 18 17 16 16 16 15 16 17 18 17 16 15 14 13 13 13 13 12 11 11 12 12 13 13 13 12 11 11 9 8 7 6 5 4 4 3 2 2 1
10 10 11 11 12 12 12 13 13 13 13 13 13 13 13 13 14 14 15 17 18 19 19 20 21 21 21 20 20 18 17 16 16 16 16 16 16 17 18 17 17 16 15 15 14 14 14 14 14 13 13 14 13 11 10 9 8 7 6 5 5 4 4 3 3 3 3 4 3
11 12 12 13 14 14 14 14 14 14 14 13 13 13 13 14 14 15 16 18 19 20 20 21 21 20 20 19 18 18 17 16 16 16 17 17 17 17 17 17 16 15 15 14 14 14 13 13 13 12 12 11 9 8 6 6 6 5 5 4 4 3 3 3 2 2 3 4 5
12 13 13 14 14 14 14 15 14 14 14 14 14 14 14 14 15 16 17 18 19 19 20 20 20 19 18 17 17 17 17 16 16 16 17 17 17 17 16 16 15 14 13 12 11 11 10 10 9 8 7 6 5 5 5 5 5 4 4 3 3 2 2 2 2 2 2 3 4
12 12 13 13 13 13 14 14 14 13 14 14 14 14 14 14 15 15 16 16 17 17 18 18 18 17 16 16 16 16 17 16 16 16 16 15 14 14 14 13 12 11 11 10 9 9 8 8 7 6 5 5 4 4 4 4 4 4 3 3 3 2 2 2 2 3 3 3 3
Wind_Direction
265 257 255 254 254 256 259 263 265 267 267 265 263 261 261 261 261 258 256 253 252 247 242 241 241 243 244 245 245 245 245 245 246 247 246 245 244 243 242 240 238 239 242 246 247 246 246 245 245 246 248 251 251 248 244 244 243 240 237 236 238 241 243 243 243 241 239 236 233
31 1 295 268 259 257 258 260 262 263 263 264 264 264 266 267 267 266 263 260 259 256 253 250 245 243 242 242 244 245 245 243 242 244 246 246 245 245 246 246 245 242 240 242 245 249 251 250 248 247 246 246 248 248 246 246 244 242 241 243 246 247 246 244 243 243 241 238 235
40 38 32 17 335 290 273 267 264 262 261 261 262 263 264 266 267 267 267 266 265 264 262 260 257 254 251 247 246 247 247 245 241 240 241 244 246 247 250 254 257 256 251 245 246 249 251 251 248 245 242 241 242 244 246 247 245 246 249 254 255 252 247 244 242 241 240 238 235
30 32 32 31 23 13 352 323 301 286 277 272 270 268 267 266 266 266 266 267 267 266 266 266 266 265 263 259 251 247 246 245 243 240 238 241 247 251 254 258 260 260 257 252 249 249 249 249 246 243 240 238 239 241 242 244 247 253 260 262 259 251 245 242 241 240 238 235 233
18 19 20 19 17 16 13 5 353 339 323 308 298 288 282 278 275 272 269 267 266 267 268 271 274 277 280 278 262 251 246 245 244 247 250 251 252 255 258 259 258 257 255 252 249 246 245 244 243 241 240 240 241 240 241 245 253 259 262 261 255 247 242 240 239 237 235 231 230
10 11 10 8 7 7 6 4 359 353 346 337 325 313 304 299 293 288 281 275 272 272 275 279 285 292 298 299 281 266 259 257 258 261 263 262 259 257 256 255 254 253 252 249 246 243 240 238 238 240 242 243 243 242 245 250 255 257 255 250 244 240 238 236 235 233 230 226 224
5 6 6 4 2 360 358 355 350 346 340 336 330 325 321 315 309 305 300 295 291 291 292 293 296 297 298 297 288 280 276 276 278 279 277 271 264 257 253 250 249 247 246 245 242 239 237 237 239 242 244 245 245 245 247 250 251 248 241 233 230 228 227 228 229 228 225 222 219
2 3 3 0 359 357 354 350 345 341 337 332 329 328 327 324 321 317 313 309 307 306 304 300 296 291 286 280 279 281 284 287 289 289 284 275 265 256 250 248 248 246 243 241 239 237 237 239 242 243 245 246 246 245 244 242 237 230 221 215 215 216 218 220 224 224 221 217 214
0 360 359 357 356 353 351 348 345 341 337 334 332 331 332 333 332 329 324 318 314 308 303 299 290 281 275 273 273 278 283 288 288 284 276 266 256 250 247 247 248 247 244 241 239 239 239 240 239 240 242 244 243 241 236 230 222 215 210 207 209 212 215 218 219 217 214 211 208
359 358 356 354 352 351 349 347 344 341 339 338 339 339 340 342 345 343 338 332 322 313 306 298 286 277 274 273 275 279 281 281 275 266 256 248 244 244 246 250 250 248 245 242 240 237 235 235 235 236 239 241 241 237 231 224 217 212 210 209 211 212 213 213 211 208 205 202 198
358 356 354 351 349 348 347 344 341 341 342 344 345 346 348 351 353 350 343 334 323 313 304 292 286 282 279 276 275 272 267 260 252 246 242 242 247 253 258 261 259 255 249 242 237 233 230 232 234 237 239 240 237 232 226 220 215 213 213 214 214 213 210 208 205 200 196 192 186
354 353 351 350 348 347 345 341 338 340 344 348 349 349 353 357 354 345 335 326 316 305 297 291 289 287 283 277 267 253 241 234 234 237 242 250 260 266 268 266 264 260 255 246 238 232 230 232 236 240 243 242 236 227 221 219 217 216 215 215 215 212 208 207 203 197 191 187 181
351 350 349 348 347 345 342 339 338 339 343 348 350 352 355 359 352 342 333 325 315 306 299 297 296 291 284 273 260 246 236 231 231 233 239 249 259 264 264 262 260 260 259 256 247 239 234 233 237 240 243 243 236 226 219 218 218 217 214 213 212 210 208 205 201 195 189 184 183
350 349 349 347 346 344 342 340 339 342 346 349 349 351 354 355 350 343 339 333 325 316 309 306 302 294 282 271 263 256 250 246 241 235 230 233 242 246 247 248 250 253 255 255 252 245 238 233 232 233 234 236 234 228 222 218 216 216 216 215 212 209 205 201 199 194 189 183 181
351 352 351 349 347 346 345 343 342 345 350 351 348 347 346 343 338 336 337 337 331 321 314 313 311 301 287 275 270 266 262 256 249 236 223 218 221 220 218 221 229 236 242 246 247 242 234 225 222 220 221 225 228 229 227 224 222 222 223 223 219 213 206 200 197 194 190 185 182
355 355 355 354 352 351 350 349 347 351 357 357 355 352 348 342 338 335 332 328 321 314 308 305 302 296 285 266 246 244 244 238 230 219 210 206 203 201 200 201 205 214 227 237 241 240 232 222 217 217 218 221 225 227 226 223 222 222 222 219 215 209 203 197 193 190 189 189 185
0 0 0 359 358 358 359 359 358 360 2 2 4 4 1 354 351 346 340 333 328 323 317 308 298 288 269 202 154 157 178 188 189 191 195 197 196 191 188 186 188 197 212 225 229 233 234 230 225 225 227 230 231 228 222 216 212 210 208 205 202 198 195 193 189 187 186 188 184
5 5 5 6 5 6 7 7 6 8 10 10 13 12 8 5 5 2 357 350 351 350 348 339 325 307 285 246 178 169 174 172 170 171 172 175 176 173 172 172 177 188 200 206 211 224 241 245 242 238 236 234 232 226 220 212 205 200 196 193 190 189 188 186 185 184 183 182 178
9 9 10 11 11 13 14 15 17 19 20 19 19 16 13 15 17 19 17 13 16 23 27 23 6 336 286 256 218 190 169 158 154 154 155 154 155 156 158 163 174 184 189 190 195 215 243 250 243 236 229 223 220 217 212 206 198 191 187 183 180 179 179 179 179 178 178 176 173
13 14 14 15 16 18 21 24 26 27 28 28 27 23 20 21 23 27 32 35 41 50 60 59 62 72 103 145 165 161 153 148 145 145 146 145 139 137 138 143 153 161 165 164 163 178 213 223 222 216 211 206 200 194 189 184 178 174 171 169 167 168 169 170 171 171 171 171 171
16 16 17 19 21 24 26 29 32 33 32 30 29 26 23 22 26 34 41 48 59 70 75 75 79 84 92 104 116 124 129 135 135 133 131 126 116 112 114 119 127 133 131 121 115 131 162 182 188 189 188 186 179 172 167 163 160 156 153 150 150 152 154 158 160 163 166 170 172
17 18 20 24 26 28 30 32 34 34 33 32 31 30 30 31 37 44 53 64 78 81 80 83 85 89 93 98 103 108 114 118 116 113 106 99 97 99 107 115 120 121 116 111 116 133 150 161 167 170 168 164 159 156 153 149 144 139 135 132 133 136 140 145 148 153 156 159 161
20 22 24 27 29 31 32 33 34 37 40 41 41 40 40 44 50 57 64 71 76 78 79 80 83 87 91 93 95 96 97 97 95 91 89 91 96 103 110 115 115 112 109 110 120 134 143 148 151 152 150 146 143 140 138 136 133 130 128 128 130 133 137 141 144 147 149 150 151
26 29 31 32 33 35 37 39 40 44 48 50 49 49 51 55 60 63 66 69 70 71 74 77 79 82 84 85 85 87 89 91 92 93 95 100 104 107 109 109 106 102 101 104 114 127 134 136 135 133 131 129 127 127 127 128 129 130 131 132 133 134 136 139 142 144 145 146 148
33 35 38 38 40 43 46 47 49 53 55 55 55 57 60 62 65 67 69 72 72 74 76 80 82 84 85 86 87 89 92 95 97 99 100 102 103 105 103 100 96 93 92 95 102 111 118 121 121 120 119 119 120 121 123 125 127 130 132 132 132 132 134 136 139 142 145 148 150
37 40 43 45 48 51 53 54 57 60 61 61 62 64 66 68 70 72 75 76 77 79 81 83 84 85 86 88 90 91 93 95 98 99 99 98 97 96 94 92 89 88 89 91 95 99 103 108 112 115 117 118 119 119 119 120 123 126 127 128 130 131 132 134 137 141 146 151 155
43 45 47 50 54 56 58 60 62 64 65 66 67 68 70 71 73 74 76 77 79 81 82 82 82 83 85 87 88 89 90 91 93 94 93 93 91 90 88 88 88 89 91 92 94 97 99 102 110 117 122 123 121 119 118 117 119 122 123 124 127 130 133 135 138 142 146 150 155
48 50 52 55 57 59 61 63 64 64 65 66 67 69 70 71 71 72 73 75 77 79 80 80 81 84 86 86 85 85 86 86 86 86 86 86 87 87 88 88 89 91 93 94 97 99 102 103 111 121 127 128 126 123 121 120 121 122 124 124 128 132 135 138 141 143 144 144 146
51 54 56 58 60 61 62 62 63 63 64 66 67 68 69 69 69 70 72 74 76 78 80 82 84 85 85 84 84 83 83 83 83 83 84 84 86 87 88 89 90 92 94 97 100 101 103 106 113 123 132 136 133 130 127 126 126 126 126 127 129 132 134 135 135 135 134 133 132
54 57 59 61 61 61 62 62 64 66 67 69 70 70 70 70 70 71 74 76 78 81 84 86 86 85 84 84 83 83 82 82 82 83 83 84 85 86 87 89 91 92 94 95 98 100 102 106 115 126 135 140 138 134 131 130 129 128 126 125 125 125 125 124 123 121 121 120 120
56 59 61 62 62 62 63 64 67 69 70 72 72 73 72 72 72 73 75 77 81 84 86 87 86 86 85 85 84 83 82 82 83 82 81 81 81 82 84 87 89 90 91 92 94 97 100 105 115 126 135 139 136 133 131 129 127 124 120 118 117 116 116 114 113 112 110 109 108
58 60 62 63 63 63 64 66 69 72 74 75 76 76 76 76 76 77 78 80 83 85 86 86 86 87 87 86 85 85 85 84 84 83 83 83 82 82 82 83 84 85 87 90 92 94 98 104 115 125 131 132 131 129 127 125 121 118 115 113 111 110 109 108 106 104 100 96 93
59 61 63 63 64 65 66 69 72 75 78 78 79 80 80 81 82 82 83 83 84 85 85 86 87 87 87 87 87 88 88 88 88 89 89 89 88 86 83 82 81 82 85 88 90 93 98 105 114 121 125 126 125 123 121 119 116 112 110 107 105 103 101 100 98 94 89 84 79
60 63 64 65 67 68 71 73 76 79 80 81 82 83 84 85 85 86 86 87 88 88 88 89 89 90 91 92 92 92 93 93 94 94 94 94 93 90 87 85 84 85 87 89 92 96 101 107 113 117 120 119 118 116 113 111 108 105 103 100 98 95 94 92 90 87 82 75 70
61 65 67 69 71 72 75 77 79 81 82 82 83 83 85 86 87 89 91 93 93 93 93 94 95 96 96 96 97 97 98 98 98 97 97 97 96 94 91 89 89 89 90 93 95 99 103 107 110 112 113 111 108 105 102 100 98 96 94 92 91 89 86 85 84 83 80 74 67
65 69 71 73 75 76 77 79 80 81 82 82 83 84 85 87 89 92 95 98 98 97 97 97 98 98 98 98 98 99 100 100 100 99 98 98 98 97 95 93 92 91 91 94 95 96 97 98 100 101 101 99 96 93 91 90 89 87 87 86 85 83 81 80 79 78 79 85 100
72 76 78 79 79 80 80 81 81 82 82 83 85 85 87 89 91 95 99 101 100 99 98 99 99 99 99 100 99 99 99 98 97 96 95 95 97 98 97 95 93 90 89 89 89 89 88 87 87 87 86 85 85 84 83 84 85 85 86 88 89 88 87 82 78 68 56 50 106
84 88 90 90 89 88 87 86 85 84 85 86 87 88 90 92 93 96 100 103 102 101 101 101 101 102 103 103 101 98 94 90 89 90 91 92 93 95 95 94 91 89 87 85 84 83 83 82 79 78 77 77 79 81 83 87 91 95 98 100 98 95 90 85 76 58 28 5 1
92 96 99 98 97 96 94 91 89 89 89 90 91 93 94 95 97 100 105 107 107 106 105 105 105 106 106 104 100 95 90 86 84 85 87 89 90 90 91 91 90 88 85 83 82 82 80 78 75 72 71 73 77 84 92 98 101 103 104 102 98 90 82 73 64 50 22 1 358
91 95 98 99 99 97 96 94 93 94 95 96 96 97 98 99 102 106 109 110 111 110 109 109 109 109 107 104 99 95 91 88 86 86 86 87 87 87 87 88 89 89 87 85 83 81 79 76 74 72 72 75 82 90 96 97 98 96 93 89 85 77 65 55 44 31 20 6 357
85 88 90 93 94 94 94 94 95 96 96 97 98 98 100 102 105 107 108 109 110 110 110 110 110 109 106 102 97 94 92 91 89 87 86 85 86 86 87 89 91 93 93 91 89 86 84 81 78 76 75 77 82 85 87 87 84 79 71 61 54 43 33 20 14 10 8 5 2
Height
763 763 763 763 763 763 764 764 764 764 764 763 763 764 764 764 764 764 764 765 765 766 766 767 767 767 768 768 768 769 769 770 770 771 771 772 772 773 773 773 773 774 776 777 776 775 774 774 774 774 774 776 777 778 778 778 778 779 779 780 780 781 782 783 783 783 783 783 783
763 763 763 763 763 763 763 763 763 763 763 763 763 763 763 764 763 764 764 764 764 765 765 766 766 766 767 767 767 768 768 768 769 769 770 771 771 772 772 772 772 773 774 775 775 774 773 773 773 773 773 774 775 776 777 776 776 777 778 778 778 779 780 781 781 781 782 782 782
763 763 763 763 763 763 763 763 763 763 763 763 763 763 763 763 763 763 763 764 764 764 765 765 765 765 766 766 766 767 767 768 768 768 769 770 770 771 771 771 771 772 773 773 773 773 772 772 773 773 773 773 773 774 775 775 775 775 775 776 777 778 779 779 780 780 781 781 781
764 763 763 763 763 763 763 763 763 763 763 763 763 763 763 763 763 763 763 763 764 764 764 764 764 765 765 765 765 766 766 767 768 768 768 769 769 770 770 770 770 770 771 771 771 771 771 771 771 771 772 772 772 773 773 773 773 773 774 775 777 778 778 778 778 779 779 780 780
764 764 764 763 763 763 763 763 763 763 763 763 763 763 763 762 762 763 763 763 763 763 763 764 764 764 765 764 764 765 765 766 767 768 768 769 769 769 769 769 769 769 769 769 769 769 769 770 770 770 771 772 772 772 773 772 772 772 773 774 776 777 777 778 778 778 778 779 779
764 764 764 764 764 764 763 763 763 763 763 763 763 763 763 762 762 762 763 763 763 763 763 763 764 764 764 764 764 764 765 766 767 767 768 769 769 769 769 769 769 769 769 769 769 769 769 770 770 770 771 772 772 772 772 771 771 771 772 773 774 775 776 777 777 777 778 778 779
765 764 764 764 764 764 764 763 763 763 763 763 763 763 763 763 763 763 762 762 763 763 763 763 763 764 764 764 764 764 764 765 766 767 768 768 768 768 768 768 768 768 768 768 769 769 769 770 770 771 771 772 772 772 772 771 771 771 771 772 773 774 775 776 776 776 777 778 778
765 764 764 764 764 764 763 763 763 763 763 763 763 763 763 763 763 762 762 762 762 762 762 763 763 763 763 764 763 764 764 765 765 766 766 767 767 768 767 767 768 768 768 768 768 768 769 770 770 770 771 771 772 772 772 771 771 771 771 772 773 773 774 775 775 776 777 778 778
765 764 764 764 763 763 763 763 763 763 763 763 763 763 763 763 762 762 762 762 762 762 762 763 763 763 763 763 763 763 764 764 764 764 765 765 766 766 767 767 767 767 767 767 768 768 769 769 770 770 770 770 771 771 772 772 772 772 772 773 773 774 774 774 774 775 776 778 778
765 764 764 763 763 763 763 763 763 763 763 762 762 762 762 762 762 762 762 762 762 762 762 763 762 762 762 763 763 763 763 763 763 764 764 765 765 766 767 767 768 768 768 767 767 768 768 769 769 769 770 770 770 771 771 772 772 772 773 773 773 774 774 774 775 776 777 778 778
765 764 764 763 763 763 763 762 762 762 762 762 762 762 762 762 762 762 762 762 762 762 762 762 762 762 762 762 762 762 762 762 763 763 763 764 765 766 767 768 768 769 768 768 767 767 767 768 768 769 769 770 770 771 772 772 773 773 773 773 774 774 775 775 776 776 777 777 778
764 764 763 763 763 763 762 762 762 762 762 762 762 762 762 762 762 761 761 762 761 761 761 761 761 761 762 762 761 761 761 761 761 761 762 763 764 765 767 768 769 769 769 768 768 767 766 767 768 768 769 770 770 771 772 772 773 773 773 774 774 775 776 776 777 777 777 777 778
764 764 763 763 763 762 762 762 762 762 762 762 762 762 762 762 761 761 761 761 761 761 761 761 761 761 761 761 761 761 761 760 760 760 760 761 762 764 765 767 768 769 770 770 769 768 766 766 767 768 769 770 771 771 772 772 773 773 773 774 775 776 776 777 777 777 777 778 778
764 764 763 763 763 762 762 762 762 762 761 761 762 762 762 762 761 761 761 761 761 761 761 761 761 761 761 761 761 761 761 761 760 759 758 758 760 761 763 764 767 768 769 770 770 769 767 766 766 767 768 770 771 771 772 772 773 773 773 774 775 775 776 776 776 777 777 778 778
764 764 763 763 763 763 762 762 762 762 762 762 762 762 762 761 761 761 761 761 761 761 761 761 761 760 760 761 761 761 761 762 761 760 759 758 758 758 759 760 763 765 768 769 769 769 768 767 767 767 768 769 770 771 772 772 773 773 773 774 774 775 775 775 775 776 777 778 779
765 764 764 763 763 763 763 762 762 762 762 762 762 762 762 761 761 761 761 761 761 760 760 760 760 760 760 760 761 761 762 762 762 762 762 761 759 758 757 757 759 761 763 767 768 769 769 768 767 768 768 769 770 771 772 772 773 773 773 773 774 774 774 775 775 776 777 778 778
765 765 764 764 764 763 763 763 763 763 762 762 762 762 762 762 761 761 761 761 761 760 760 760 760 760 760 761 761 761 762 762 763 763 763 763 762 761 759 758 757 757 759 763 766 768 769 768 768 768 769 770 771 771 772 772 772 773 773 773 774 774 774 775 776 777 778 778 778
765 765 765 764 764 764 764 763 763 763 763 763 763 763 762 762 762 762 761 761 761 761 761 761 761 761 761 761 761 762 762 763 763 763 764 764 764 763 761 759 758 757 758 760 763 766 767 768 768 769 769 770 771 771 771 772 772 772 773 773 773 774 775 776 777 778 778 778 779
766 766 765 765 765 764 764 764 764 764 763 763 763 763 763 763 762 762 762 761 761 761 761 761 761 761 761 762 762 762 762 763 763 764 764 764 764 763 762 760 759 759 759 760 761 763 765 767 768 769 769 769 770 770 771 771 771 772 773 773 774 775 776 777 778 778 779 780 780
767 766 766 766 766 765 765 765 765 764 764 764 764 763 763 763 763 762 762 762 761 761 761 761 761 761 761 762 762 762 763 763 763 764 764 764 763 763 762 762 762 762 763 762 761 762 764 767 768 769 769 769 770 770 771 771 772 773 773 774 775 776 777 778 778 779 780 781 781
767 767 767 767 766 766 766 766 765 765 765 764 764 764 763 763 763 763 762 762 762 762 762 762 762 762 762 762 763 763 763 763 764 764 764 764 763 763 763 764 764 764 764 764 763 763 765 767 769 769 770 770 770 771 771 772 773 773 774 775 776 777 778 779 780 780 781 782 782
768 768 768 767 767 767 767 766 766 766 765 765 765 764 764 764 763 763 763 763 763 762 762 762 762 763 763 763 763 763 764 764 764 764 764 764 764 764 765 765 766 766 765 765 764 765 767 768 769 770 770 771 771 772 772 773 774 775 776 777 777 778 779 779 780 781 782 782 783
769 768 768 768 768 768 767 767 766 766 766 766 766 765 765 765 764 764 764 764 763 763 763 763 763 763 764 764 764 764 765 765 765 765 765 765 765 766 766 766 766 766 766 766 766 767 768 769 770 771 771 772 772 773 774 774 775 776 777 777 778 778 779 780 780 781 782 783 783
769 769 769 768 768 768 768 767 767 767 767 766 766 766 766 766 765 765 765 765 764 764 764 764 764 765 765 765 765 765 766 766 766 766 766 766 766 766 767 767 767 767 767 767 768 769 770 770 771 772 773 773 774 774 775 776 777 777 777 778 778 779 779 780 781 782 783 783 784
770 769 769 769 768 768 768 768 768 768 767 767 767 767 767 767 767 766 766 766 765 765 765 765 766 766 766 766 766 766 767 767 767 767 767 767 767 767 767 767 768 768 768 769 770 771 772 772 773 773 774 774 775 776 776 777 778 778 778 779 779 780 780 781 782 783 783 784 784
770 770 769 769 769 769 768 768 768 768 768 768 768 768 768 768 768 768 767 767 767 767 767 767 767 767 767 768 767 767 768 768 768 768 768 768 768 768 768 768 768 769 770 771 772 773 773 774 774 774 775 775 776 777 777 778 778 779 780 780 780 781 781 782 783 784 784 785 785
771 770 770 770 769 769 769 769 769 769 769 769 769 769 769 769 769 769 768 768 768 768 768 768 768 769 769 769 769 769 769 769 769 769 769 769 769 769 769 769 770 771 771 773 773 774 775 775 775 776 776 776 777 778 778 779 780 780 781 781 782 782 783 783 784 785 785 786 786
771 771 771 771 770 771 771 771 771 771 771 771 771 770 770 770 770 770 769 769 769 769 769 769 770 770 770 770 770 771 771 771 771 771 771 771 771 771 771 771 772 772 773 774 774 775 776 776 776 777 777 777 778 778 779 780 780 781 781 782 783 783 783 784 785 785 786 786 786
772 772 772 772 772 772 772 772 772 772 772 772 772 772 771 771 771 771 771 771 771 770 771 771 771 771 772 772 772 772 773 773 773 773 773 773 773 773 773 773 773 774 775 775 776 776 777 777 777 778 778 778 778 779 780 780 781 782 782 783 783 784 785 785 786 786 787 787 787
773 773 773 773 773 773 773 773 773 773 773 773 773 773 772 772 772 772 772 772 772 772 772 772 773 773 773 773 774 774 774 774 775 775 775 775 775 775 775 775 775 776 776 777 777 778 778 778 778 779 779 779 779 780 781 781 782 783 783 784 785 785 786 786 787 787 787 788 788
774 774 774 774 774 774 774 774 774 774 774 774 773 773 773 773 774 774 773 773 773 773 773 773 774 774 775 775 775 776 776 776 776 777 777 777 777 777 777 777 777 777 778 778 779 779 779 779 780 780 780 781 781 781 782 783 783 783 784 785 786 786 787 787 788 788 788 788 788
775 775 775 775 775 775 775 775 775 775 775 775 774 774 775 775 775 775 775 775 775 775 775 775 775 776 776 777 777 777 777 777 777 778 778 778 778 778 778 778 779 779 780 780 780 781 781 781 781 781 782 782 782 783 783 783 784 785 785 786 787 787 788 788 788 789 789 789 789
776 776 776 776 776 777 777 777 777 776 776 776 776 776 776 776 776 776 776 776 776 776 776 776 776 777 777 778 778 778 778 778 779 779 779 779 779 780 780 780 781 782 782 782 782 782 782 782 782 783 783 783 783 784 784 785 785 786 786 787 788 788 788 789 789 789 789 789 790
777 777 777 777 778 778 778 778 778 777 777 777 777 777 777 777 777 777 777 778 777 777 777 777 777 778 778 779 779 779 780 780 780 781 781 781 781 781 781 782 783 783 783 783 783 783 783 783 783 784 784 784 785 785 785 786 786 787 787 788 788 789 789 789 790 790 790 790 790
778 778 778 778 779 779 779 779 779 778 778 778 778 778 778 778 778 778 779 779 778 778 778 778 779 779 780 780 780 781 781 781 782 782 782 782 782 782 782 783 783 784 784 784 784 784 784 784 785 785 785 785 786 786 786 787 787 788 788 789 789 789 790 790 790 790 791 791 791
779 779 779 779 780 780 780 780 780 780 780 780 780 780 780 780 780 780 780 780 780 779 780 780 780 781 781 781 782 782 782 783 783 783 783 783 783 783 783 783 784 784 785 785 785 785 785 786 786 786 786 786 787 787 787 788 788 789 789 790 790 790 790 791 791 791 791 791 791
780 780 780 780 781 781 781 781 781 781 781 781 781 781 781 781 781 781 781 781 781 781 781 782 782 782 783 783 783 783 784 784 784 784 784 784 784 784 784 784 785 785 786 786 786 786 786 787 787 787 787 787 788 788 788 789 789 790 790 791 791 791 792 792 792 792 792 791 791
781 781 781 781 781 782 782 782 782 782 782 782 783 783 783 783 783 783 783 783 782 783 783 783 783 784 784 784 784 785 785 786 785 785 785 785 785 785 785 785 786 786 787 787 787 787 787 787 788 788 788 788 788 789 790 790 791 791 792 792 792 792 792 792 792 792 792 792 792
782 782 782 782 782 782 783 783 783 783 783 783 783 783 783 783 784 784 784 783 783 783 784 784 785 785 785 786 786 786 787 787 787 787 786 787 787 787 787 787 787 787 788 788 788 788 788 788 789 789 789 790 790 791 791 792 792 792 793 793 793 793 793 793 793 793 792 792 792
783 783 783 783 783 783 783 783 784 784 784 784 784 784 784 784 785 785 785 785 785 785 785 786 786 787 787 787 787 787 787 788 788 788 788 788 788 788 788 788 788 789 789 789 789 790 790 790 790 791 791 792 792 792 793 793 793 793 793 793 793 793 793 793 793 793 793 793 792
784 784 784 784 784 784 785 785 785 785 785 785 785 785 786 786 786 786 786 786 786 786 787 787 788 788 788 788 788 788 788 788 789 789 788 789 789 789 789 789 790 790 790 791 791 791 792 792 792 792 793 793 793 793 793 793 793 793 793 793 793 793 793 793 793 793 793 793 793